Year,Month,Day,Hour,Minute,Value (Times are PST for barometer in hPa)
2011,11,21,00,00,1005.76
2011,11,21,00,01,1005.82
2011,11,21,00,02,1005.76
2011,11,21,00,03,1005.76
2011,11,21,00,04,1005.76
2011,11,21,00,05,1005.79
2011,11,21,00,06,1005.76
2011,11,21,00,07,1005.79
2011,11,21,00,08,1005.79
2011,11,21,00,09,1005.78
2011,11,21,00,10,1005.66
2011,11,21,00,11,1005.69
2011,11,21,00,12,1005.69
2011,11,21,00,13,1005.61
2011,11,21,00,14,1005.51
2011,11,21,00,15,1005.35
2011,11,21,00,16,1005.42
2011,11,21,00,17,1005.39
2011,11,21,00,18,1005.35
2011,11,21,00,19,1005.42
2011,11,21,00,20,1005.44
2011,11,21,00,21,1005.35
2011,11,21,00,22,1005.35
2011,11,21,00,23,1005.32
2011,11,21,00,24,1005.28
2011,11,21,00,25,1005.28
2011,11,21,00,26,1005.22
2011,11,21,00,27,1005.18
2011,11,21,00,28,1005.18
2011,11,21,00,29,1005.18
2011,11,21,00,30,1005.11
2011,11,21,00,31,1005.18
2011,11,21,00,32,1005.17
2011,11,21,00,33,1005.08
2011,11,21,00,34,1005.15
2011,11,21,00,35,1005.15
2011,11,21,00,36,1005.15
2011,11,21,00,37,1005.18
2011,11,21,00,38,1005.18
2011,11,21,00,39,1005.15
2011,11,21,00,40,1005.17
2011,11,21,00,41,1005.01
2011,11,21,00,42,1005.01
2011,11,21,00,43,1004.94
2011,11,21,00,44,1004.74
2011,11,21,00,45,1004.71
2011,11,21,00,46,1004.71
2011,11,21,00,47,1004.67
2011,11,21,00,48,1004.60
2011,11,21,00,49,1004.50
2011,11,21,00,50,1004.44
2011,11,21,00,51,1004.44
2011,11,21,00,52,1004.54
2011,11,21,00,53,1004.54
2011,11,21,00,54,1004.54
2011,11,21,00,55,1004.57
2011,11,21,00,56,1004.47
2011,11,21,00,57,1004.47
2011,11,21,00,58,1004.39
2011,11,21,00,59,1004.27
2011,11,21,01,00,1004.27
2011,11,21,01,01,1004.22
2011,11,21,01,02,1004.13
2011,11,21,01,03,1004.06
2011,11,21,01,04,1004.06
2011,11,21,01,05,1004.06
2011,11,21,01,06,1004.03
2011,11,21,01,07,1003.93
2011,11,21,01,08,1003.95
2011,11,21,01,09,1003.77
2011,11,21,01,10,1003.85
2011,11,21,01,11,1003.76
2011,11,21,01,12,1003.62
2011,11,21,01,13,1003.62
2011,11,21,01,14,1003.59
2011,11,21,01,15,1003.59
2011,11,21,01,16,1003.49
2011,11,21,01,17,1003.42
2011,11,21,01,18,1003.39
2011,11,21,01,19,1003.35
2011,11,21,01,20,1003.32
2011,11,21,01,21,1003.25
2011,11,21,01,22,1003.25
2011,11,21,01,23,1003.25
2011,11,21,01,24,1003.32
2011,11,21,01,25,1003.25
2011,11,21,01,26,1003.18
2011,11,21,01,27,1003.18
2011,11,21,01,28,1003.15
2011,11,21,01,29,1003.18
2011,11,21,01,30,1003.22
2011,11,21,01,31,1003.12
2011,11,21,01,32,1003.12
2011,11,21,01,33,1003.12
2011,11,21,01,34,1003.15
2011,11,21,01,35,1003.12
2011,11,21,01,36,1003.05
2011,11,21,01,37,1003.14
2011,11,21,01,38,1002.96
2011,11,21,01,39,1003.05
2011,11,21,01,40,1002.91
2011,11,21,01,41,1002.98
2011,11,21,01,42,1002.90
2011,11,21,01,43,1002.74
2011,11,21,01,44,1002.64
2011,11,21,01,45,1002.54
2011,11,21,01,46,1002.63
2011,11,21,01,47,1002.54
2011,11,21,01,48,1002.51
2011,11,21,01,49,1002.54
2011,11,21,01,50,1002.54
2011,11,21,01,51,1002.51
2011,11,21,01,52,1002.54
2011,11,21,01,53,1002.64
2011,11,21,01,54,1002.64
2011,11,21,01,55,1002.54
2011,11,21,01,56,1002.64
2011,11,21,01,57,1002.72
2011,11,21,01,58,1002.81
2011,11,21,01,59,1002.81
2011,11,21,02,00,1002.74
2011,11,21,02,01,1002.85
2011,11,21,02,02,1002.91
2011,11,21,02,03,1002.81
2011,11,21,02,04,1002.74
2011,11,21,02,05,1002.71
2011,11,21,02,06,1002.71
2011,11,21,02,07,1002.74
2011,11,21,02,08,1002.64
2011,11,21,02,09,1002.68
2011,11,21,02,10,1002.68
2011,11,21,02,11,1002.64
2011,11,21,02,12,1002.61
2011,11,21,02,13,1002.57
2011,11,21,02,14,1002.57
2011,11,21,02,15,1002.54
2011,11,21,02,16,1002.57
2011,11,21,02,17,1002.57
2011,11,21,02,18,1002.54
2011,11,21,02,19,1002.51
2011,11,21,02,20,1002.47
2011,11,21,02,21,1002.54
2011,11,21,02,22,1002.53
2011,11,21,02,23,1002.41
2011,11,21,02,24,1002.34
2011,11,21,02,25,1002.24
2011,11,21,02,26,1002.27
2011,11,21,02,27,1002.27
2011,11,21,02,28,1002.20
2011,11,21,02,29,1002.27
2011,11,21,02,30,1002.17
2011,11,21,02,31,1002.13
2011,11,21,02,32,1002.10
2011,11,21,02,33,1002.13
2011,11,21,02,34,1002.13
2011,11,21,02,35,1002.10
2011,11,21,02,36,1002.08
2011,11,21,02,37,1002.17
2011,11,21,02,38,1002.20
2011,11,21,02,39,1002.13
2011,11,21,02,40,1002.17
2011,11,21,02,41,1002.10
2011,11,21,02,42,1002.13
2011,11,21,02,43,1002.17
2011,11,21,02,44,1002.16
2011,11,21,02,45,1002.00
2011,11,21,02,46,1001.90
2011,11,21,02,47,1001.86
2011,11,21,02,48,1001.83
2011,11,21,02,49,1001.83
2011,11,21,02,50,1001.80
2011,11,21,02,51,1001.83
2011,11,21,02,52,1001.80
2011,11,21,02,53,1001.85
2011,11,21,02,54,1001.73
2011,11,21,02,55,1001.76
2011,11,21,02,56,1001.80
2011,11,21,02,57,1001.66
2011,11,21,02,58,1001.63
2011,11,21,02,59,1001.56
2011,11,21,03,00,1001.42
2011,11,21,03,01,1001.25
2011,11,21,03,02,1001.22
2011,11,21,03,06,1001.15
2011,11,21,03,07,1001.12
2011,11,21,03,08,1001.08
2011,11,21,03,09,1001.05
2011,11,21,03,10,1001.03
2011,11,21,03,11,1000.85
2011,11,21,03,12,1000.80
2011,11,21,03,13,1000.71
2011,11,21,03,14,1000.68
2011,11,21,03,15,1000.60
2011,11,21,03,16,1000.53
2011,11,21,03,17,1000.42
2011,11,21,03,18,1000.50
2011,11,21,03,19,1000.41
2011,11,21,03,20,1000.41
2011,11,21,03,21,1000.37
2011,11,21,03,22,1000.36
2011,11,21,03,23,1000.27
2011,11,21,03,24,1000.26
2011,11,21,03,25,1000.20
2011,11,21,03,26,1000.20
2011,11,21,03,27,1000.17
2011,11,21,03,28,1000.23
2011,11,21,03,29,1000.13
2011,11,21,03,30,1000.07
2011,11,21,03,31,1000.07
2011,11,21,03,32,1000.10
2011,11,21,03,33,1000.06
2011,11,21,03,34,999.97
2011,11,21,03,35,999.97
2011,11,21,03,36,999.93
2011,11,21,03,37,999.93
2011,11,21,03,38,999.90
2011,11,21,03,39,999.89
2011,11,21,03,40,999.79
2011,11,21,03,41,999.71
2011,11,21,03,42,999.91
2011,11,21,03,43,999.76
2011,11,21,03,44,999.73
2011,11,21,03,45,999.70
2011,11,21,03,46,999.73
2011,11,21,03,47,999.70
2011,11,21,03,48,999.59
2011,11,21,03,49,999.56
2011,11,21,03,50,999.49
2011,11,21,03,51,999.49
2011,11,21,03,52,999.48
2011,11,21,03,53,999.39
2011,11,21,03,54,999.36
2011,11,21,03,55,999.36
2011,11,21,03,56,999.36
2011,11,21,03,57,999.32
2011,11,21,03,58,999.35
2011,11,21,03,59,999.26
2011,11,21,04,00,999.29
2011,11,21,04,01,999.28
2011,11,21,04,02,999.21
2011,11,21,04,03,999.15
2011,11,21,04,04,999.15
2011,11,21,04,05,999.13
2011,11,21,04,06,999.20
2011,11,21,04,07,999.29
2011,11,21,04,08,999.26
2011,11,21,04,09,999.25
2011,11,21,04,10,999.19
2011,11,21,04,11,999.22
2011,11,21,04,12,999.22
2011,11,21,04,13,999.22
2011,11,21,04,14,999.21
2011,11,21,04,15,999.15
2011,11,21,04,16,999.18
2011,11,21,04,17,999.09
2011,11,21,04,18,999.05
2011,11,21,04,19,999.05
2011,11,21,04,20,999.02
2011,11,21,04,21,999.02
2011,11,21,04,22,998.99
2011,11,21,04,23,998.95
2011,11,21,04,24,998.92
2011,11,21,04,25,998.92
2011,11,21,04,26,998.87
2011,11,21,04,27,998.75
2011,11,21,04,28,998.71
2011,11,21,04,29,998.69
2011,11,21,04,30,998.51
2011,11,21,04,31,998.48
2011,11,21,04,32,998.44
2011,11,21,04,33,998.41
2011,11,21,04,34,998.42
2011,11,21,04,35,998.26
2011,11,21,04,36,998.20
2011,11,21,04,37,998.14
2011,11,21,04,38,998.16
2011,11,21,04,39,998.04
2011,11,21,04,40,998.06
2011,11,21,04,41,998.00
2011,11,21,04,42,998.00
2011,11,21,04,43,997.97
2011,11,21,04,44,997.98
2011,11,21,04,45,997.82
2011,11,21,04,46,997.73
2011,11,21,04,47,997.77
2011,11,21,04,48,997.79
2011,11,21,04,49,997.70
2011,11,21,04,50,997.74
2011,11,21,04,51,997.86
2011,11,21,04,52,997.76
2011,11,21,04,53,997.71
2011,11,21,04,54,997.80
2011,11,21,04,55,997.80
2011,11,21,04,56,997.82
2011,11,21,04,57,997.73
2011,11,21,04,58,997.73
2011,11,21,04,59,997.70
2011,11,21,05,00,997.73
2011,11,21,05,01,997.73
2011,11,21,05,02,997.77
2011,11,21,05,03,997.77
2011,11,21,05,04,997.80
2011,11,21,05,05,997.77
2011,11,21,05,06,997.80
2011,11,21,05,07,997.83
2011,11,21,05,08,997.80
2011,11,21,05,09,997.83
2011,11,21,05,10,997.83
2011,11,21,05,11,997.80
2011,11,21,05,12,997.77
2011,11,21,05,13,997.77
2011,11,21,05,14,997.80
2011,11,21,05,15,997.79
2011,11,21,05,16,997.73
2011,11,21,05,17,997.77
2011,11,21,05,18,997.80
2011,11,21,05,19,997.80
2011,11,21,05,20,997.78
2011,11,21,05,21,997.83
2011,11,21,05,22,997.87
2011,11,21,05,23,997.87
2011,11,21,05,24,997.84
2011,11,21,05,25,997.90
2011,11,21,05,26,997.83
2011,11,21,05,27,997.78
2011,11,21,05,28,997.90
2011,11,21,05,29,997.93
2011,11,21,05,30,997.87
2011,11,21,05,31,997.83
2011,11,21,05,32,997.73
2011,11,21,05,33,997.77
2011,11,21,05,34,997.73
2011,11,21,05,35,997.77
2011,11,21,05,36,997.72
2011,11,21,05,37,997.66
2011,11,21,05,38,997.66
2011,11,21,05,39,997.66
2011,11,21,05,40,997.63
2011,11,21,05,41,997.60
2011,11,21,05,42,997.60
2011,11,21,05,43,997.55
2011,11,21,05,44,997.44
2011,11,21,05,45,997.55
2011,11,21,05,46,997.46
2011,11,21,05,47,997.50
2011,11,21,05,48,997.53
2011,11,21,05,49,997.55
2011,11,21,05,50,997.51
2011,11,21,05,51,997.55
2011,11,21,05,52,997.50
2011,11,21,05,53,997.50
2011,11,21,05,54,997.45
2011,11,21,05,55,997.35
2011,11,21,05,56,997.28
2011,11,21,05,57,997.43
2011,11,21,05,58,997.46
2011,11,21,05,59,997.42
2011,11,21,06,00,997.35
2011,11,21,06,01,997.26
2011,11,21,06,02,997.20
2011,11,21,06,03,997.05
2011,11,21,06,04,996.99
2011,11,21,06,05,997.05
2011,11,21,06,06,997.02
2011,11,21,06,07,996.99
2011,11,21,06,08,996.95
2011,11,21,06,09,996.98
2011,11,21,06,10,996.92
2011,11,21,06,11,996.95
2011,11,21,06,12,996.92
2011,11,21,06,13,996.92
2011,11,21,06,14,996.92
2011,11,21,06,15,996.95
2011,11,21,06,16,996.92
2011,11,21,06,17,996.92
2011,11,21,06,18,996.92
2011,11,21,06,19,996.89
2011,11,21,06,20,996.92
2011,11,21,06,21,996.92
2011,11,21,06,22,996.92
2011,11,21,06,23,996.92
2011,11,21,06,24,996.92
2011,11,21,06,25,996.92
2011,11,21,06,26,996.92
2011,11,21,06,27,996.95
2011,11,21,06,28,996.89
2011,11,21,06,29,996.93
2011,11,21,06,30,996.99
2011,11,21,06,31,997.00
2011,11,21,06,32,997.17
2011,11,21,06,33,997.25
2011,11,21,06,34,997.19
2011,11,21,06,35,997.22
2011,11,21,06,36,997.22
2011,11,21,06,37,997.22
2011,11,21,06,38,997.16
2011,11,21,06,39,997.12
2011,11,21,06,40,997.06
2011,11,21,06,41,997.12
2011,11,21,06,42,997.16
2011,11,21,06,43,997.19
2011,11,21,06,44,997.20
2011,11,21,06,45,997.26
2011,11,21,06,46,997.25
2011,11,21,06,47,997.19
2011,11,21,06,48,997.15
2011,11,21,06,49,997.05
2011,11,21,06,50,996.98
2011,11,21,06,51,996.92
2011,11,21,06,52,997.03
2011,11,21,06,53,997.19
2011,11,21,06,54,997.26
2011,11,21,06,55,997.26
2011,11,21,06,56,997.22
2011,11,21,06,57,997.22
2011,11,21,06,58,997.23
2011,11,21,06,59,997.29
2011,11,21,07,00,997.33
2011,11,21,07,01,997.33
2011,11,21,07,02,997.29
2011,11,21,07,03,997.34
2011,11,21,07,04,997.42
2011,11,21,07,05,997.36
2011,11,21,07,06,997.39
2011,11,21,07,07,997.36
2011,11,21,07,08,997.36
2011,11,21,07,09,997.36
2011,11,21,07,10,997.29
2011,11,21,07,11,997.33
2011,11,21,07,12,997.35
2011,11,21,07,13,997.30
2011,11,21,07,14,997.39
2011,11,21,07,15,997.36
2011,11,21,07,16,997.39
2011,11,21,07,17,997.36
2011,11,21,07,18,997.39
2011,11,21,07,19,997.43
2011,11,21,07,20,997.46
2011,11,21,07,21,997.46
2011,11,21,07,22,997.50
2011,11,21,07,23,997.51
2011,11,21,07,24,997.60
2011,11,21,07,25,997.62
2011,11,21,07,26,997.53
2011,11,21,07,27,997.56
2011,11,21,07,28,997.53
2011,11,21,07,29,997.55
2011,11,21,07,30,997.43
2011,11,21,07,31,997.43
2011,11,21,07,32,997.52
2011,11,21,07,33,997.43
2011,11,21,07,34,997.43
2011,11,21,07,35,997.43
2011,11,21,07,36,997.46
2011,11,21,07,37,997.46
2011,11,21,07,38,997.46
2011,11,21,07,39,997.50
2011,11,21,07,40,997.50
2011,11,21,07,41,997.46
2011,11,21,07,42,997.45
2011,11,21,07,43,997.33
2011,11,21,07,44,997.33
2011,11,21,07,45,997.35
2011,11,21,07,46,997.22
2011,11,21,07,47,997.19
2011,11,21,07,48,997.22
2011,11,21,07,49,997.19
2011,11,21,07,50,997.22
2011,11,21,07,51,997.19
2011,11,21,07,52,997.19
2011,11,21,07,53,997.22
2011,11,21,07,54,997.23
2011,11,21,07,55,997.29
2011,11,21,07,56,997.33
2011,11,21,07,57,997.29
2011,11,21,07,58,997.33
2011,11,21,07,59,997.29
2011,11,21,08,00,997.33
2011,11,21,08,01,997.33
2011,11,21,08,02,997.37
2011,11,21,08,03,997.46
2011,11,21,08,04,997.46
2011,11,21,08,05,997.46
2011,11,21,08,06,997.50
2011,11,21,08,07,997.51
2011,11,21,08,08,997.56
2011,11,21,08,09,997.63
2011,11,21,08,10,997.66
2011,11,21,08,11,997.66
2011,11,21,08,12,997.67
2011,11,21,08,13,997.73
2011,11,21,08,14,997.74
2011,11,21,08,15,997.86
2011,11,21,08,16,997.78
2011,11,21,08,17,997.83
2011,11,21,08,18,997.83
2011,11,21,08,19,997.81
2011,11,21,08,20,997.94
2011,11,21,08,21,997.91
2011,11,21,08,22,997.98
2011,11,21,08,23,998.10
2011,11,21,08,24,998.16
2011,11,21,08,25,998.11
2011,11,21,08,26,998.17
2011,11,21,08,27,998.21
2011,11,21,08,28,998.27
2011,11,21,08,29,998.28
2011,11,21,08,30,998.42
2011,11,21,08,31,998.48
2011,11,21,08,32,998.51
2011,11,21,08,33,998.54
2011,11,21,08,34,998.54
2011,11,21,08,35,998.51
2011,11,21,08,36,998.58
2011,11,21,08,37,998.54
2011,11,21,08,38,998.58
2011,11,21,08,39,998.54
2011,11,21,08,40,998.54
2011,11,21,08,41,998.58
2011,11,21,08,42,998.51
2011,11,21,08,43,998.59
2011,11,21,08,44,998.68
2011,11,21,08,45,998.68
2011,11,21,08,46,998.68
2011,11,21,08,47,998.71
2011,11,21,08,48,998.75
2011,11,21,08,49,998.78
2011,11,21,08,50,998.79
2011,11,21,08,51,998.85
2011,11,21,08,52,998.82
2011,11,21,08,53,998.88
2011,11,21,08,54,998.92
2011,11,21,08,55,998.95
2011,11,21,08,56,998.92
2011,11,21,08,57,998.92
2011,11,21,08,58,998.99
2011,11,21,08,59,998.99
2011,11,21,09,00,999.02
2011,11,21,09,01,999.05
2011,11,21,09,02,999.05
2011,11,21,09,03,999.08
2011,11,21,09,04,998.99
2011,11,21,09,05,998.96
2011,11,21,09,06,999.05
2011,11,21,09,07,999.09
2011,11,21,09,08,999.12
2011,11,21,09,09,999.15
2011,11,21,09,10,999.12
2011,11,21,09,11,999.15
2011,11,21,09,12,999.19
2011,11,21,09,13,999.22
2011,11,21,09,14,999.26
2011,11,21,09,15,999.32
2011,11,21,09,16,999.36
2011,11,21,09,17,999.39
2011,11,21,09,18,999.36
2011,11,21,09,19,999.32
2011,11,21,09,20,999.32
2011,11,21,09,21,999.36
2011,11,21,09,22,999.46
2011,11,21,09,23,999.49
2011,11,21,09,24,999.49
2011,11,21,09,25,999.48
2011,11,21,09,26,999.40
2011,11,21,09,27,999.49
2011,11,21,09,28,999.53
2011,11,21,09,29,999.59
2011,11,21,09,30,999.59
2011,11,21,09,31,999.55
2011,11,21,09,32,999.50
2011,11,21,09,33,999.56
2011,11,21,09,34,999.56
2011,11,21,09,35,999.53
2011,11,21,09,36,999.52
2011,11,21,09,37,999.39
2011,11,21,09,38,999.43
2011,11,21,09,39,999.46
2011,11,21,09,40,999.49
2011,11,21,09,41,999.50
2011,11,21,09,42,999.56
2011,11,21,09,43,999.59
2011,11,21,09,44,999.63
2011,11,21,09,45,999.70
2011,11,21,09,46,999.66
2011,11,21,09,47,999.70
2011,11,21,09,48,999.67
2011,11,21,09,49,999.76
2011,11,21,09,50,999.83
2011,11,21,09,51,999.87
2011,11,21,09,52,999.83
2011,11,21,09,53,999.73
2011,11,21,09,54,999.73
2011,11,21,09,55,999.80
2011,11,21,09,56,999.76
2011,11,21,09,57,999.76
2011,11,21,09,58,999.80
2011,11,21,09,59,999.80
2011,11,21,10,00,999.80
2011,11,21,10,01,999.87
2011,11,21,10,02,999.87
2011,11,21,10,03,999.83
2011,11,21,10,04,999.87
2011,11,21,10,05,999.87
2011,11,21,10,06,999.90
2011,11,21,10,07,999.93
2011,11,21,10,08,999.93
2011,11,21,10,09,999.97
2011,11,21,10,10,1000.00
2011,11,21,10,11,999.93
2011,11,21,10,12,999.97
2011,11,21,10,13,999.97
2011,11,21,10,14,999.97
2011,11,21,10,15,1000.08
2011,11,21,10,16,1000.17
2011,11,21,10,17,1000.13
2011,11,21,10,18,1000.03
2011,11,21,10,19,1000.14
2011,11,21,10,20,1000.17
2011,11,21,10,21,1000.17
2011,11,21,10,22,1000.20
2011,11,21,10,23,1000.10
2011,11,21,10,24,1000.17
2011,11,21,10,25,1000.20
2011,11,21,10,26,1000.20
2011,11,21,10,27,1000.20
2011,11,21,10,28,1000.26
2011,11,21,10,29,1000.17
2011,11,21,10,30,1000.17
2011,11,21,10,31,1000.17
2011,11,21,10,32,1000.24
2011,11,21,10,33,1000.31
2011,11,21,10,34,1000.37
2011,11,21,10,35,1000.41
2011,11,21,10,36,1000.37
2011,11,21,10,37,1000.41
2011,11,21,10,38,1000.41
2011,11,21,10,39,1000.41
2011,11,21,10,40,1000.41
2011,11,21,10,41,1000.44
2011,11,21,10,42,1000.44
2011,11,21,10,43,1000.48
2011,11,21,10,44,1000.48
2011,11,21,10,45,1000.48
2011,11,21,10,46,1000.44
2011,11,21,10,47,1000.51
2011,11,21,10,48,1000.41
2011,11,21,10,49,1000.44
2011,11,21,10,50,1000.48
2011,11,21,10,51,1000.54
2011,11,21,10,52,1000.51
2011,11,21,10,53,1000.54
2011,11,21,10,54,1000.51
2011,11,21,10,55,1000.54
2011,11,21,10,56,1000.61
2011,11,21,10,57,1000.64
2011,11,21,10,58,1000.68
2011,11,21,10,59,1000.68
2011,11,21,11,00,1000.64
2011,11,21,11,01,1000.65
2011,11,21,11,02,1000.75
2011,11,21,11,03,1000.81
2011,11,21,11,04,1000.81
2011,11,21,11,05,1000.85
2011,11,21,11,06,1000.78
2011,11,21,11,07,1000.78
2011,11,21,11,08,1000.75
2011,11,21,11,09,1000.71
2011,11,21,11,10,1000.71
2011,11,21,11,11,1000.68
2011,11,21,11,12,1000.68
2011,11,21,11,13,1000.68
2011,11,21,11,14,1000.71
2011,11,21,11,15,1000.71
2011,11,21,11,16,1000.71
2011,11,21,11,17,1000.71
2011,11,21,11,18,1000.71
2011,11,21,11,19,1000.74
2011,11,21,11,20,1000.61
2011,11,21,11,21,1000.64
2011,11,21,11,22,1000.64
2011,11,21,11,23,1000.71
2011,11,21,11,24,1000.71
2011,11,21,11,25,1000.74
2011,11,21,11,26,1000.64
2011,11,21,11,27,1000.71
2011,11,21,11,28,1000.64
2011,11,21,11,29,1000.61
2011,11,21,11,30,1000.58
2011,11,21,11,31,1000.61
2011,11,21,11,32,1000.78
2011,11,21,11,33,1000.81
2011,11,21,11,34,1000.85
2011,11,21,11,35,1000.81
2011,11,21,11,36,1000.85
2011,11,21,11,37,1000.85
2011,11,21,11,38,1000.88
2011,11,21,11,39,1000.95
2011,11,21,11,40,1000.88
2011,11,21,11,41,1000.85
2011,11,21,11,42,1000.92
2011,11,21,11,43,1000.95
2011,11,21,11,44,1000.92
2011,11,21,11,45,1000.88
2011,11,21,11,46,1000.92
2011,11,21,11,47,1000.92
2011,11,21,11,48,1000.85
2011,11,21,11,49,1000.88
2011,11,21,11,50,1000.88
2011,11,21,11,51,1000.85
2011,11,21,11,52,1000.85
2011,11,21,11,53,1000.85
2011,11,21,11,54,1000.92
2011,11,21,11,55,1000.98
2011,11,21,11,56,1001.05
2011,11,21,11,57,1001.12
2011,11,21,11,58,1001.15
2011,11,21,11,59,1001.12
2011,11,21,12,00,1001.15
2011,11,21,12,01,1001.12
2011,11,21,12,02,1001.08
2011,11,21,12,03,1001.08
2011,11,21,12,04,1001.05
2011,11,21,12,05,1001.05
2011,11,21,12,06,1001.02
2011,11,21,12,07,1001.02
2011,11,21,12,08,1000.96
2011,11,21,12,09,1001.05
2011,11,21,12,10,1001.02
2011,11,21,12,11,1001.02
2011,11,21,12,12,1000.88
2011,11,21,12,13,1000.81
2011,11,21,12,14,1000.81
2011,11,21,12,15,1000.81
2011,11,21,12,16,1000.78
2011,11,21,12,17,1000.75
2011,11,21,12,18,1000.75
2011,11,21,12,19,1000.81
2011,11,21,12,20,1000.81
2011,11,21,12,21,1000.78
2011,11,21,12,22,1000.78
2011,11,21,12,23,1000.75
2011,11,21,12,24,1000.75
2011,11,21,12,25,1000.71
2011,11,21,12,26,1000.71
2011,11,21,12,27,1000.75
2011,11,21,12,28,1000.71
2011,11,21,12,29,1000.68
2011,11,21,12,30,1000.68
2011,11,21,12,31,1000.71
2011,11,21,12,32,1000.68
2011,11,21,12,33,1000.68
2011,11,21,12,34,1000.61
2011,11,21,12,35,1000.54
2011,11,21,12,36,1000.64
2011,11,21,12,37,1000.61
2011,11,21,12,38,1000.70
2011,11,21,12,39,1000.59
2011,11,21,12,40,1000.81
2011,11,21,12,41,1000.76
2011,11,21,12,42,1000.88
2011,11,21,12,43,1000.92
2011,11,21,12,44,1000.85
2011,11,21,12,45,1000.85
2011,11,21,12,46,1000.81
2011,11,21,12,47,1000.85
2011,11,21,12,48,1000.88
2011,11,21,12,49,1000.81
2011,11,21,12,50,1000.81
2011,11,21,12,51,1000.81
2011,11,21,12,52,1000.84
2011,11,21,12,53,1000.75
2011,11,21,12,54,1000.75
2011,11,21,12,55,1000.71
2011,11,21,12,56,1000.68
2011,11,21,12,57,1000.68
2011,11,21,12,58,1000.64
2011,11,21,12,59,1000.64
2011,11,21,13,00,1000.64
2011,11,21,13,01,1000.68
2011,11,21,13,02,1000.64
2011,11,21,13,03,1000.68
2011,11,21,13,04,1000.64
2011,11,21,13,05,1000.61
2011,11,21,13,06,1000.68
2011,11,21,13,07,1000.64
2011,11,21,13,08,1000.61
2011,11,21,13,09,1000.64
2011,11,21,13,10,1000.64
2011,11,21,13,11,1000.64
2011,11,21,13,12,1000.64
2011,11,21,13,13,1000.68
2011,11,21,13,14,1000.64
2011,11,21,13,15,1000.61
2011,11,21,13,16,1000.61
2011,11,21,13,17,1000.61
2011,11,21,13,18,1000.54
2011,11,21,13,19,1000.54
2011,11,21,13,20,1000.54
2011,11,21,13,21,1000.48
2011,11,21,13,22,1000.53
2011,11,21,13,23,1000.44
2011,11,21,13,24,1000.44
2011,11,21,13,25,1000.41
2011,11,21,13,26,1000.44
2011,11,21,13,27,1000.44
2011,11,21,13,28,1000.48
2011,11,21,13,29,1000.54
2011,11,21,13,30,1000.51
2011,11,21,13,31,1000.51
2011,11,21,13,32,1000.44
2011,11,21,13,33,1000.51
2011,11,21,13,34,1000.44
2011,11,21,13,35,1000.48
2011,11,21,13,36,1000.41
2011,11,21,13,37,1000.37
2011,11,21,13,38,1000.34
2011,11,21,13,39,1000.41
2011,11,21,13,40,1000.44
2011,11,21,13,41,1000.37
2011,11,21,13,42,1000.34
2011,11,21,13,43,1000.31
2011,11,21,13,44,1000.34
2011,11,21,13,45,1000.31
2011,11,21,13,46,1000.31
2011,11,21,13,47,1000.31
2011,11,21,13,48,1000.24
2011,11,21,13,49,1000.27
2011,11,21,13,50,1000.24
2011,11,21,13,51,1000.24
2011,11,21,13,52,1000.20
2011,11,21,13,53,1000.24
2011,11,21,13,54,1000.24
2011,11,21,13,55,1000.24
2011,11,21,13,56,1000.20
2011,11,21,13,57,1000.24
2011,11,21,13,58,1000.20
2011,11,21,13,59,1000.24
2011,11,21,14,00,1000.27
2011,11,21,14,01,1000.17
2011,11,21,14,02,1000.24
2011,11,21,14,03,1000.20
2011,11,21,14,04,1000.20
2011,11,21,14,05,1000.24
2011,11,21,14,06,1000.24
2011,11,21,14,07,1000.24
2011,11,21,14,08,1000.24
2011,11,21,14,09,1000.24
2011,11,21,14,10,1000.27
2011,11,21,14,11,1000.27
2011,11,21,14,12,1000.27
2011,11,21,14,13,1000.27
2011,11,21,14,14,1000.31
2011,11,21,14,15,1000.28
2011,11,21,14,16,1000.37
2011,11,21,14,17,1000.31
2011,11,21,14,18,1000.31
2011,11,21,14,19,1000.31
2011,11,21,14,20,1000.34
2011,11,21,14,21,1000.31
2011,11,21,14,22,1000.31
2011,11,21,14,23,1000.31
2011,11,21,14,24,1000.34
2011,11,21,14,25,1000.34
2011,11,21,14,26,1000.34
2011,11,21,14,27,1000.41
2011,11,21,14,28,1000.27
2011,11,21,14,29,1000.31
2011,11,21,14,30,1000.34
2011,11,21,14,31,1000.34
2011,11,21,14,32,1000.31
2011,11,21,14,33,1000.31
2011,11,21,14,34,1000.27
2011,11,21,14,35,1000.27
2011,11,21,14,36,1000.24
2011,11,21,14,37,1000.24
2011,11,21,14,38,1000.24
2011,11,21,14,39,1000.27
2011,11,21,14,40,1000.31
2011,11,21,14,41,1000.34
2011,11,21,14,42,1000.34
2011,11,21,14,43,1000.34
2011,11,21,14,44,1000.41
2011,11,21,14,45,1000.37
2011,11,21,14,46,1000.34
2011,11,21,14,47,1000.41
2011,11,21,14,48,1000.37
2011,11,21,14,49,1000.37
2011,11,21,14,50,1000.41
2011,11,21,14,51,1000.44
2011,11,21,14,52,1000.44
2011,11,21,14,53,1000.37
2011,11,21,14,54,1000.41
2011,11,21,14,55,1000.41
2011,11,21,14,56,1000.41
2011,11,21,14,57,1000.41
2011,11,21,14,58,1000.44
2011,11,21,14,59,1000.48
2011,11,21,15,00,1000.51
2011,11,21,15,01,1000.51
2011,11,21,15,02,1000.48
2011,11,21,15,03,1000.51
2011,11,21,15,04,1000.48
2011,11,21,15,05,1000.48
2011,11,21,15,06,1000.41
2011,11,21,15,07,1000.41
2011,11,21,15,08,1000.37
2011,11,21,15,09,1000.37
2011,11,21,15,10,1000.41
2011,11,21,15,11,1000.34
2011,11,21,15,12,1000.34
2011,11,21,15,13,1000.34
2011,11,21,15,14,1000.34
2011,11,21,15,15,1000.34
2011,11,21,15,16,1000.34
2011,11,21,15,17,1000.37
2011,11,21,15,18,1000.31
2011,11,21,15,19,1000.31
2011,11,21,15,20,1000.31
2011,11,21,15,21,1000.27
2011,11,21,15,22,1000.17
2011,11,21,15,23,1000.20
2011,11,21,15,24,1000.13
2011,11,21,15,25,1000.03
2011,11,21,15,26,1000.00
2011,11,21,15,27,1000.03
2011,11,21,15,28,999.97
2011,11,21,15,29,999.87
2011,11,21,15,30,999.83
2011,11,21,15,31,999.80
2011,11,21,15,32,999.80
2011,11,21,15,33,999.70
2011,11,21,15,34,999.70
2011,11,21,15,35,999.59
2011,11,21,15,36,999.63
2011,11,21,15,37,999.56
2011,11,21,15,38,999.59
2011,11,21,15,39,999.56
2011,11,21,15,40,999.49
2011,11,21,15,41,999.43
2011,11,21,15,42,999.46
2011,11,21,15,43,999.32
2011,11,21,15,44,999.29
2011,11,21,15,45,999.26
2011,11,21,15,46,999.22
2011,11,21,15,47,999.12
2011,11,21,15,48,999.11
2011,11,21,15,49,998.99
2011,11,21,15,50,998.99
2011,11,21,15,51,999.05
2011,11,21,15,52,998.99
2011,11,21,15,53,998.95
2011,11,21,15,54,998.85
2011,11,21,15,55,998.92
2011,11,21,15,56,998.88
2011,11,21,15,57,998.92
2011,11,21,15,58,998.92
2011,11,21,15,59,998.82
2011,11,21,16,00,998.85
2011,11,21,16,01,998.88
2011,11,21,16,02,998.92
2011,11,21,16,03,998.99
2011,11,21,16,04,998.95
2011,11,21,16,05,998.92
2011,11,21,16,06,999.02
2011,11,21,16,07,999.05
2011,11,21,16,08,999.02
2011,11,21,16,09,998.95
2011,11,21,16,10,998.99
2011,11,21,16,11,998.92
2011,11,21,16,12,999.02
2011,11,21,16,13,998.99
2011,11,21,16,14,998.99
2011,11,21,16,15,998.99
2011,11,21,16,16,998.88
2011,11,21,16,17,998.82